CW6881 Weather Reports


Display with metric or nautical units.
time (UTC)temp
F
wind
direction
speed
MPH
gust
MPH
rain 1hr
in
rain 24hr
in
rain mn
in
humidity
%
barometer
mb
20260507085017 51 158 2.0 4.0 0.00 0.00 0.00 86 1021.1
20260507084017 51 158 1.0 4.0 0.00 0.00 0.00 86 1021.1
20260507083037 51 158 1.0 4.0 0.00 0.00 0.00 86 1021.1
20260507082037 51 158 2.0 6.0 0.00 0.00 0.00 85 1021.1
20260507081017 51 158 2.0 5.0 0.00 0.00 0.00 85 1021.1
20260507080017 51 0.0 2.0 0.00 0.00 0.00 85 1021.2
20260507075017 51 0.0 2.0 0.00 0.00 0.00 85 1021.2
20260507074017 51 0.0 0.0 0.00 0.00 0.00 85 1021.2
20260507073017 51 225 1.0 2.0 0.00 0.00 0.00 85 1021.2
20260507072017 51 203 2.0 5.0 0.00 0.00 0.00 85 1021.1
20260507071017 51 203 2.0 4.0 0.00 0.00 0.00 85 1021.1
20260507070017 51 203 2.0 5.0 0.00 0.00 0.00 84 1021.1
20260507065037 51 203 1.0 2.0 0.00 0.00 0.00 84 1021.2
20260507064017 51 203 1.0 2.0 0.00 0.00 0.00 84 1021.0
20260507063037 51 203 1.0 3.0 0.00 0.00 0.00 84 1021.1
20260507062017 51 203 1.0 4.0 0.00 0.00 0.00 84 1021.1
20260507061017 51 203 2.0 3.0 0.00 0.00 0.00 85 1021.0
20260507060017 52 180 3.0 6.0 0.00 0.00 0.00 85 1021.1
20260507055019 52 203 3.0 8.0 0.00 0.00 0.00 85 1021.1
20260507054017 52 203 1.0 4.0 0.00 0.00 0.00 85 1021.1
20260507053017 52 225 3.0 6.0 0.00 0.00 0.00 86 1021.1
20260507052017 53 203 3.0 6.0 0.00 0.00 0.00 85 1021.1
20260507051037 53 203 2.0 4.0 0.00 0.00 0.00 85 1021.2
20260507050017 53 203 2.0 6.0 0.00 0.00 0.00 85 1021.2
20260507045017 53 203 3.0 6.0 0.00 0.00 0.00 85 1021.2
20260507044017 54 203 2.0 6.0 0.00 0.00 0.00 84 1021.1
20260507043017 54 180 3.0 6.0 0.00 0.00 0.00 83 1021.1
20260507042017 54 203 3.0 7.0 0.00 0.00 0.00 83 1021.0
20260507041017 54 203 1.0 4.0 0.00 0.00 0.00 82 1021.0
20260507040017 54 225 1.0 4.0 0.00 0.00 0.00 82 1021.0
20260507035017 55 0.0 2.0 0.00 0.00 0.00 82 1020.9
20260507034017 55 180 1.0 2.0 0.00 0.00 0.00 82 1020.8
20260507033517 55 203 1.0 4.0 0.00 0.00 0.00 81 1020.7
20260507032517 55 0.0 2.0 0.00 0.00 0.00 81 1020.7
20260507031537 55 203 1.0 4.0 0.00 0.00 0.00 81 1020.6
20260507030517 55 203 1.0 5.0 0.00 0.00 0.00 81 1020.6
20260507025517 55 0.0 3.0 0.00 0.00 0.00 80 1020.4
20260507024537 56 203 2.0 5.0 0.00 0.00 0.00 80 1020.4
20260507023517 56 203 1.0 3.0 0.00 0.00 0.00 80 1020.4
20260507022537 56 203 1.0 4.0 0.00 0.00 0.00 79 1020.3
20260507021517 56 203 2.0 7.0 0.00 0.00 0.00 79 1020.3
20260507020517 57 225 2.0 6.0 0.00 0.00 0.00 78 1020.4
20260507015517 57 203 2.0 6.0 0.00 0.00 0.00 78 1020.3
20260507014517 57 225 3.0 10.0 0.00 0.00 0.00 77 1020.3
20260507013518 57 203 2.0 7.0 0.00 0.00 0.00 78 1020.3
20260507012517 57 203 1.0 5.0 0.00 0.00 0.00 78 1020.4
20260507011517 57 203 3.0 8.0 0.00 0.00 0.00 78 1020.3
20260507010517 58 203 3.0 7.0 0.00 0.00 0.00 77 1020.4
20260507005517 58 225 2.0 7.0 0.00 0.00 0.00 77 1020.5
20260507004517 58 203 1.0 3.0 0.00 0.00 0.00 77 1020.5
20260507003517 58 203 3.0 10.0 0.00 0.00 0.00 77 1020.5
20260507002517 58 203 2.0 7.0 0.00 0.00 0.00 76 1020.4
20260507001517 58 203 2.0 7.0 0.00 0.00 0.00 76 1020.4
20260507000517 58 203 1.0 3.0 0.00 0.00 0.00 75 1020.4
20260506235517 59 225 3.0 10.0 0.00 0.00 0.00 75 1020.4
20260506234517 59 203 2.0 6.0 0.00 0.00 0.00 76 1020.4
20260506233537 59 203 4.0 8.0 0.00 0.00 0.00 74 1020.4
20260506232517 60 225 1.0 4.0 0.00 0.00 0.00 75 1020.5
20260506231517 59 225 3.0 8.0 0.00 0.00 0.00 73 1020.5
20260506230517 60 203 4.0 11.0 0.00 0.00 0.00 74 1020.5
20260506225517 59 203 4.0 8.0 0.00 0.00 0.00 75 1020.5
20260506224517 60 203 3.0 8.0 0.00 0.00 0.00 74 1020.6
20260506223517 59 203 3.0 6.0 0.00 0.00 0.00 75 1020.6
20260506222517 60 203 6.0 13.0 0.00 0.00 0.00 73 1020.7
20260506221517 60 225 3.0 8.0 0.00 0.00 0.00 76 1020.7
20260506220517 58 203 2.0 7.0 0.00 0.00 0.00 76 1020.8
20260506215517 58 203 2.0 5.0 0.00 0.00 0.00 77 1020.8
20260506214517 58 203 2.0 5.0 0.00 0.00 0.00 76 1020.9
20260506213517 58 203 1.0 4.0 0.00 0.00 0.00 77 1020.8
20260506212535 58 203 1.0 3.0 0.00 0.00 0.00 78 1020.8
20260506211537 57 203 2.0 7.0 0.00 0.00 0.00 78 1020.8
20260506210517 57 225 1.0 6.0 0.00 0.00 0.00 78 1020.8
20260506205517 57 225 3.0 7.0 0.00 0.00 0.00 77 1020.7
20260506204537 57 203 2.0 7.0 0.00 0.00 0.00 77 1020.8
20260506203517 57 203 1.0 4.0 0.00 0.00 0.00 79 1020.6
20260506202517 57 203 1.0 4.0 0.00 0.00 0.00 77 1020.6
20260506201535 57 248 2.0 6.0 0.00 0.00 0.00 79 1020.5
20260506200517 57 203 3.0 11.0 0.00 0.00 0.00 78 1020.5
20260506195517 57 203 2.0 5.0 0.00 0.00 0.00 79 1020.5
20260506194517 57 203 3.0 10.0 0.00 0.00 0.00 79 1020.4
20260506193517 56 203 3.0 8.0 0.00 0.00 0.00 80 1020.3
20260506192557 56 203 3.0 11.0 0.00 0.00 0.00 81 1020.3
20260506191517 56 203 2.0 6.0 0.00 0.00 0.00 82 1020.3
20260506190557 56 203 2.0 6.0 0.00 0.00 0.00 82 1020.4
20260506185517 56 203 2.0 6.0 0.00 0.00 0.00 82 1020.4
20260506184517 56 203 2.0 5.0 0.00 0.00 0.00 82 1020.4
20260506183537 56 225 1.0 5.0 0.00 0.00 0.00 82 1020.6
20260506182517 56 203 1.0 5.0 0.00 0.00 0.00 82 1020.4
20260506181517 56 0.0 3.0 0.00 0.00 0.00 84 1020.1
20260506180517 55 203 1.0 5.0 0.00 0.00 0.00 84 1020.1
20260506175517 55 203 2.0 5.0 0.00 0.00 0.00 85 1020.1
20260506174557 54 158 2.0 6.0 0.00 0.00 0.00 84 1020.2
20260506173537 55 203 3.0 6.0 0.00 0.00 0.00 84 1020.1
20260506172517 55 180 2.0 4.0 0.00 0.00 0.00 84 1020.2
20260506171517 54 203 2.0 7.0 0.00 0.00 0.00 85 1020.2
20260506170517 54 180 2.0 5.0 0.00 0.00 0.00 85 1020.1
20260506165517 54 225 3.0 7.0 0.00 0.00 0.00 85 1020.2
20260506164517 54 225 2.0 4.0 0.00 0.00 0.00 85 1020.1
20260506163517 54 225 2.0 5.0 0.00 0.00 0.00 85 1019.8
20260506162517 54 225 3.0 6.0 0.00 0.00 0.00 85 1019.7
20260506161517 53 203 2.0 3.0 0.00 0.00 0.00 85 1019.6
20260506160517 53 203 1.0 3.0 0.00 0.00 0.00 85 1019.7
20260506155517 53 180 2.0 5.0 0.00 0.00 0.00 85 1020.0
20260506154517 53 225 1.0 4.0 0.00 0.00 0.00 85 1020.1
20260506153517 53 203 1.0 3.0 0.00 0.00 0.00 85 1020.1
20260506152517 53 180 1.0 4.0 0.00 0.00 0.00 85 1019.7
20260506151517 53 135 1.0 4.0 0.00 0.00 0.00 85 1019.7
20260506150517 53 203 1.0 2.0 0.00 0.00 0.00 86 1019.8
20260506145517 53 0.0 2.0 0.00 0.00 0.00 86 1019.9
20260506144517 53 203 1.0 3.0 0.00 0.00 0.00 86 1019.9
20260506143517 53 203 1.0 3.0 0.00 0.00 0.00 86 1019.6
20260506142517 53 135 1.0 4.0 0.00 0.00 0.00 85 1019.3
20260506141515 53 203 2.0 4.0 0.00 0.00 0.00 85 1019.6
20260506140555 53 203 2.0 5.0 0.00 0.00 0.00 85 1019.6
20260506135515 53 180 1.0 3.0 0.00 0.00 0.00 85 1019.6
20260506134515 53 203 2.0 5.0 0.00 0.00 0.00 85 1019.4
20260506133535 53 203 1.0 3.0 0.00 0.00 0.00 85 1019.3
20260506132515 53 203 2.0 4.0 0.00 0.00 0.00 86 1019.3
20260506131515 53 203 1.0 3.0 0.00 0.00 0.00 85 1019.0
20260506130544 53 0.0 0.0 0.00 0.00 0.00 85 1019.1
20260506130015 53 203 1.0 3.0 0.00 0.00 0.00 85 1018.9
20260506125015 53 203 1.0 2.0 0.00 0.00 0.00 85 1019.0
20260506124035 53 180 1.0 2.0 0.00 0.00 0.00 85 1019.0
20260506123015 53 180 1.0 4.0 0.00 0.00 0.00 85 1018.9
20260506122015 53 180 1.0 3.0 0.00 0.00 0.00 85 1018.9
20260506121016 53 180 2.0 3.0 0.00 0.00 0.00 85 1018.9
20260506120015 52 158 1.0 4.0 0.00 0.00 0.00 85 1018.8
20260506115035 52 158 1.0 5.0 0.00 0.00 0.00 85 1018.5
20260506114035 52 0.0 2.0 0.00 0.00 0.00 86 1018.5
20260506113015 52 0.0 1.0 0.00 0.00 0.00 86 1018.7
20260506112035 53 203 1.0 3.0 0.00 0.00 0.00 86 1018.7
20260506111015 53 203 2.0 5.0 0.00 0.00 0.00 86 1018.6
20260506110016 53 180 1.0 4.0 0.00 0.00 0.00 86 1018.5
20260506105015 53 203 2.0 4.0 0.00 0.00 0.00 86 1018.4
20260506104015 53 225 2.0 5.0 0.00 0.00 0.00 85 1018.4
20260506103015 53 180 1.0 3.0 0.00 0.00 0.00 85 1018.2
20260506102035 53 203 1.0 4.0 0.00 0.00 0.00 85 1018.2
20260506101015 53 203 1.0 5.0 0.00 0.00 0.00 85 1018.0
20260506100016 53 203 1.0 4.0 0.00 0.00 0.00 85 1017.9
20260506095015 53 203 1.0 3.0 0.00 0.00 0.00 85 1017.8
20260506094015 53 0.0 2.0 0.00 0.00 0.00 85 1017.7
20260506093035 53 180 1.0 4.0 0.00 0.00 0.00 86 1017.7
20260506092015 53 180 1.0 2.0 0.00 0.00 0.00 86 1017.6
20260506091035 52 203 1.0 3.0 0.00 0.00 0.00 86 1017.7
20260506090035 52 203 2.0 5.0 0.00 0.00 0.00 86 1017.7